Private Wetterstation Wechselburg
Wetterdaten: Donnerstag, 22.10.2009
Datum Zeit Temp. +2m Bodentemp. Temp.+5cm Temp. Wind Windchill X Diff Temp. Feuchte +2m Feuchte +5cm Sonnenschein Luftdruck Regen Wind Richtung Richtung Sonnenschein UV Taupunkt Windchill Windben
22.10.2009 00:00 3,1 C 8,3 C 3,1 C 2,5 C 1,4 C 0,0 C 86 % 88 % 0 % 1008,9 hPa 0,0 l/m 3,1 km/h (1 Bft) O-NO 67 0 min 0,0 UV-I 1,0 C 1,4 C 6,0 km/h (2 Bft)
22.10.2009 00:07 3,0 C 8,3 C 3,0 C 2,3 C 1,0 C 0,0 C 86 % 88 % 0 % 1008,8 hPa 0,0 l/m 3,7 km/h (1 Bft) N 0 0 min 0,0 UV-I 0,9 C 1,0 C 2,4 km/h (1 Bft)
22.10.2009 00:10 3,0 C 8,3 C 3,0 C 2,3 C 1,0 C 0,0 C 86 % 88 % 0 % 1008,8 hPa 0,0 l/m 3,7 km/h (1 Bft) O-NO 67 0 min 0,0 UV-I 0,9 C 1,0 C 2,4 km/h (1 Bft)
22.10.2009 00:15 3,1 C 8,3 C 3,0 C 2,5 C 1,3 C 0,0 C 86 % 88 % 0 % 1008,8 hPa 0,0 l/m 3,2 km/h (1 Bft) O-NO 67 0 min 0,0 UV-I 1,0 C 1,3 C 2,6 km/h (1 Bft)
22.10.2009 00:20 2,9 C 8,3 C 3,0 C 2,4 C 1,3 C 0,0 C 86 % 88 % 0 % 1008,8 hPa 0,0 l/m 3,1 km/h (1 Bft) O-NO 67 0 min 0,0 UV-I 0,8 C 1,3 C 3,7 km/h (1 Bft)
22.10.2009 00:25 2,9 C 8,3 C 3,0 C 2,3 C 1,1 C 0,0 C 86 % 88 % 0 % 1008,3 hPa 0,0 l/m 3,1 km/h (1 Bft) O-NO 67 0 min 0,0 UV-I 0,8 C 1,1 C 4,3 km/h (1 Bft)
22.10.2009 00:30 2,9 C 8,3 C 2,9 C 2,3 C 1,2 C 0,0 C 86 % 88 % 0 % 1008,3 hPa 0,0 l/m 3,2 km/h (1 Bft) O-NO 67 0 min 0,0 UV-I 0,8 C 1,2 C 3,2 km/h (1 Bft)
22.10.2009 00:35 2,9 C 8,3 C 2,9 C 2,4 C 1,5 C 0,0 C 86 % 88 % 0 % 1008,3 hPa 0,0 l/m 2,4 km/h (1 Bft) O-NO 67 0 min 0,0 UV-I 0,8 C 1,5 C 0,0 km/h (0 Bft)
22.10.2009 00:40 2,9 C 8,3 C 2,8 C 2,4 C 1,3 C 0,0 C 87 % 88 % 0 % 1008,3 hPa 0,0 l/m 1,0 km/h (0 Bft) O-NO 67 0 min 0,0 UV-I 1,0 C 1,3 C 3,9 km/h (1 Bft)
22.10.2009 00:45 2,8 C 8,3 C 2,9 C 2,3 C 1,3 C 0,0 C 86 % 89 % 0 % 1007,9 hPa 0,0 l/m 1,8 km/h (1 Bft) O-NO 67 0 min 0,0 UV-I 0,7 C 1,3 C 4,3 km/h (1 Bft)
22.10.2009 00:50 2,8 C 8,3 C 2,8 C 2,2 C 1,1 C 0,0 C 87 % 89 % 0 % 1007,9 hPa 0,0 l/m 2,9 km/h (1 Bft) O-NO 67 0 min 0,0 UV-I 0,9 C 1,1 C 2,1 km/h (1 Bft)
22.10.2009 00:55 2,9 C 8,3 C 2,7 C 2,4 C 1,3 C 0,0 C 87 % 88 % 0 % 1007,9 hPa 0,0 l/m 2,3 km/h (1 Bft) O-NO 67 0 min 0,0 UV-I 1,0 C 1,3 C 0,0 km/h (0 Bft)
22.10.2009 01:00 2,9 C 8,3 C 2,7 C 2,3 C 1,0 C 0,0 C 87 % 89 % 0 % 1007,9 hPa 0,0 l/m 0,6 km/h (0 Bft) O-NO 67 0 min 0,0 UV-I 1,0 C 1,0 C 0,0 km/h (0 Bft)
22.10.2009 01:10 2,8 C 8,4 C 2,5 C 2,0 C 0,5 C 0,0 C 87 % 89 % 0 % 1008,2 hPa 0,0 l/m 0,0 km/h (0 Bft) NO 45 0 min 0,0 UV-I 0,9 C 0,5 C 0,0 km/h (0 Bft)
22.10.2009 01:15 2,8 C 8,3 C 2,5 C 2,0 C 0,3 C 0,0 C 87 % 89 % 0 % 1008,2 hPa 0,0 l/m 0,0 km/h (0 Bft) SW 225 0 min 0,0 UV-I 0,9 C 0,3 C 0,0 km/h (0 Bft)
22.10.2009 01:20 2,8 C 8,3 C 2,4 C 1,9 C 0,1 C 0,0 C 87 % 89 % 0 % 1008,2 hPa 0,0 l/m 0,0 km/h (0 Bft) SW 225 0 min 0,0 UV-I 0,9 C 0,1 C 0,0 km/h (0 Bft)
22.10.2009 01:25 2,7 C 8,4 C 2,4 C 1,8 C -0,1 C 0,0 C 87 % 89 % 0 % 1008,2 hPa 0,0 l/m 0,0 km/h (0 Bft) SW 225 0 min 0,0 UV-I 0,8 C -0,1 C 0,0 km/h (0 Bft)
22.10.2009 01:30 2,6 C 8,4 C 2,3 C 1,7 C -0,1 C 0,0 C 87 % 89 % 0 % 1008,2 hPa 0,0 l/m 0,0 km/h (0 Bft) SW 225 0 min 0,0 UV-I 0,7 C -0,1 C 0,0 km/h (0 Bft)
22.10.2009 01:35 2,5 C 8,4 C 2,2 C 1,6 C -0,2 C 0,0 C 87 % 89 % 0 % 1008,2 hPa 0,0 l/m 0,0 km/h (0 Bft) O-NO 67 0 min 0,0 UV-I 0,6 C -0,2 C 0,0 km/h (0 Bft)
22.10.2009 01:40 2,4 C 8,4 C 2,0 C 1,6 C 0,0 C 0,0 C 87 % 89 % 0 % 1008,2 hPa 0,0 l/m 0,0 km/h (0 Bft) N-NO 22 0 min 0,0 UV-I 0,5 C 0,0 C 0,0 km/h (0 Bft)
22.10.2009 01:45 2,4 C 8,4 C 2,0 C 1,6 C 0,0 C 0,0 C 87 % 90 % 0 % 1008,1 hPa 0,0 l/m 0,5 km/h (0 Bft) O-NO 67 0 min 0,0 UV-I 0,5 C 0,0 C 1,6 km/h (1 Bft)
22.10.2009 01:50 2,5 C 8,3 C 2,0 C 1,8 C 0,3 C 0,0 C 87 % 90 % 0 % 1008,1 hPa 0,0 l/m 0,6 km/h (0 Bft) NO 45 0 min 0,0 UV-I 0,6 C 0,3 C 0,0 km/h (0 Bft)
22.10.2009 01:55 2,4 C 8,4 C 2,0 C 1,7 C 0,2 C 0,0 C 87 % 90 % 0 % 1008,1 hPa 0,0 l/m 0,5 km/h (0 Bft) O-NO 67 0 min 0,0 UV-I 0,5 C 0,2 C 0,0 km/h (0 Bft)
22.10.2009 02:00 2,4 C 8,3 C 2,0 C 1,6 C 0,1 C 0,0 C 87 % 90 % 0 % 1008,1 hPa 0,0 l/m 0,2 km/h (0 Bft) S-SO 157 0 min 0,0 UV-I 0,5 C 0,1 C 0,0 km/h (0 Bft)
22.10.2009 02:10 2,4 C 8,4 C 2,0 C 1,5 C -0,3 C 0,0 C 87 % 90 % 0 % 1007,9 hPa 0,0 l/m 0,0 km/h (0 Bft) NO 45 0 min 0,0 UV-I 0,5 C -0,3 C 0,0 km/h (0 Bft)
22.10.2009 02:15 2,3 C 8,4 C 1,9 C 1,4 C -0,4 C 0,0 C 87 % 90 % 0 % 1007,9 hPa 0,0 l/m 0,0 km/h (0 Bft) NO 45 0 min 0,0 UV-I 0,4 C -0,4 C 0,0 km/h (0 Bft)
22.10.2009 02:20 2,3 C 8,4 C 1,9 C 1,3 C -0,6 C 0,0 C 87 % 90 % 0 % 1007,9 hPa 0,0 l/m 0,0 km/h (0 Bft) NO 45 0 min 0,0 UV-I 0,4 C -0,6 C 0,0 km/h (0 Bft)
22.10.2009 02:25 2,3 C 8,4 C 1,7 C 1,3 C -0,7 C 0,0 C 88 % 90 % 0 % 1007,4 hPa 0,0 l/m 0,0 km/h (0 Bft) S-SW 202 0 min 0,0 UV-I 0,5 C -0,7 C 0,0 km/h (0 Bft)
22.10.2009 02:30 2,3 C 8,4 C 1,6 C 1,3 C -0,6 C 0,0 C 87 % 90 % 0 % 1007,4 hPa 0,0 l/m 0,0 km/h (0 Bft) O-NO 67 0 min 0,0 UV-I 0,4 C -0,6 C 0,0 km/h (0 Bft)
22.10.2009 02:35 2,3 C 8,3 C 1,6 C 1,3 C -0,7 C 0,0 C 87 % 90 % 0 % 1007,4 hPa 0,0 l/m 0,0 km/h (0 Bft) NO 45 0 min 0,0 UV-I 0,4 C -0,7 C 1,6 km/h (1 Bft)
22.10.2009 02:40 2,1 C 8,3 C 1,6 C 1,2 C -0,7 C 0,0 C 87 % 90 % 0 % 1007,4 hPa 0,0 l/m 0,2 km/h (0 Bft) W-SW 247 0 min 0,0 UV-I 0,2 C -0,7 C 0,0 km/h (0 Bft)
22.10.2009 02:45 2,1 C 8,3 C 1,7 C 1,1 C -0,8 C 0,0 C 87 % 90 % 0 % 1007,1 hPa 0,0 l/m 0,2 km/h (0 Bft) N-NO 22 0 min 0,0 UV-I 0,2 C -0,8 C 0,0 km/h (0 Bft)
22.10.2009 02:50 2,0 C 8,3 C 1,6 C 1,0 C -0,9 C 0,0 C 87 % 90 % 0 % 1007,1 hPa 0,0 l/m 0,0 km/h (0 Bft) O-NO 67 0 min 0,0 UV-I 0,1 C -0,9 C 0,0 km/h (0 Bft)
22.10.2009 02:55 2,0 C 8,3 C 1,6 C 1,1 C -0,8 C 0,0 C 87 % 90 % 0 % 1007,1 hPa 0,0 l/m 0,0 km/h (0 Bft) W-NW 292 0 min 0,0 UV-I 0,1 C -0,8 C 0,0 km/h (0 Bft)
22.10.2009 03:00 2,1 C 8,3 C 1,5 C 1,1 C -0,8 C 0,0 C 87 % 90 % 0 % 1007,1 hPa 0,0 l/m 0,0 km/h (0 Bft) O 90 0 min 0,0 UV-I 0,2 C -0,8 C 0,0 km/h (0 Bft)
22.10.2009 03:10 2,0 C 8,3 C 1,7 C 1,1 C -0,8 C 0,0 C 87 % 91 % 0 % 1006,9 hPa 0,0 l/m 0,0 km/h (0 Bft) SO 135 0 min 0,0 UV-I 0,1 C -0,8 C 0,0 km/h (0 Bft)
22.10.2009 03:15 2,0 C 8,3 C 1,7 C 1,0 C -1,0 C 0,0 C 87 % 91 % 0 % 1006,9 hPa 0,0 l/m 0,0 km/h (0 Bft) O-SO 112 0 min 0,0 UV-I 0,1 C -1,0 C 0,0 km/h (0 Bft)
22.10.2009 03:20 2,0 C 8,3 C 1,5 C 1,0 C -1,0 C 0,0 C 87 % 90 % 0 % 1006,9 hPa 0,0 l/m 0,0 km/h (0 Bft) O 90 0 min 0,0 UV-I 0,1 C -1,0 C 0,0 km/h (0 Bft)
22.10.2009 03:25 1,9 C 8,3 C 1,5 C 1,0 C -0,9 C 0,0 C 88 % 91 % 0 % 1006,4 hPa 0,0 l/m 0,0 km/h (0 Bft) O-NO 67 0 min 0,0 UV-I 0,1 C -0,9 C 0,0 km/h (0 Bft)
22.10.2009 03:30 2,0 C 8,3 C 1,5 C 1,1 C -0,8 C 0,0 C 88 % 91 % 0 % 1006,4 hPa 0,0 l/m 0,0 km/h (0 Bft) S 180 0 min 0,0 UV-I 0,2 C -0,8 C 0,0 km/h (0 Bft)
22.10.2009 03:35 2,1 C 8,3 C 1,5 C 1,1 C -0,9 C 0,0 C 88 % 91 % 0 % 1006,4 hPa 0,0 l/m 0,0 km/h (0 Bft) NO 45 0 min 0,0 UV-I 0,3 C -0,9 C 0,0 km/h (0 Bft)
22.10.2009 03:40 2,0 C 8,3 C 1,6 C 1,0 C -0,9 C 0,0 C 88 % 91 % 0 % 1006,4 hPa 0,0 l/m 0,0 km/h (0 Bft) S-SO 157 0 min 0,0 UV-I 0,2 C -0,9 C 0,0 km/h (0 Bft)
22.10.2009 03:45 2,0 C 8,3 C 1,6 C 1,0 C -0,9 C 0,0 C 88 % 91 % 0 % 1006,4 hPa 0,0 l/m 0,0 km/h (0 Bft) NW 315 0 min 0,0 UV-I 0,2 C -0,9 C 0,0 km/h (0 Bft)
22.10.2009 03:50 2,0 C 8,3 C 1,5 C 1,0 C -1,0 C 0,0 C 88 % 91 % 0 % 1006,4 hPa 0,0 l/m 0,0 km/h (0 Bft) O 90 0 min 0,0 UV-I 0,2 C -1,0 C 0,0 km/h (0 Bft)
22.10.2009 03:55 1,9 C 8,3 C 1,4 C 0,9 C -1,0 C 0,0 C 88 % 91 % 0 % 1006,4 hPa 0,0 l/m 0,0 km/h (0 Bft) O 90 0 min 0,0 UV-I 0,1 C -1,0 C 0,0 km/h (0 Bft)
22.10.2009 04:00 1,9 C 8,3 C 1,5 C 0,9 C -1,1 C 0,0 C 88 % 91 % 0 % 1006,4 hPa 0,0 l/m 0,0 km/h (0 Bft) S 180 0 min 0,0 UV-I 0,1 C -1,1 C 0,0 km/h (0 Bft)
22.10.2009 04:10 1,9 C 8,2 C 1,4 C 0,9 C -1,2 C 0,0 C 88 % 91 % 0 % 1006,6 hPa 0,0 l/m 0,0 km/h (0 Bft) O-NO 67 0 min 0,0 UV-I 0,1 C -1,2 C 0,0 km/h (0 Bft)
22.10.2009 04:15 1,7 C 8,2 C 1,3 C 0,8 C -1,1 C 0,0 C 88 % 91 % 0 % 1006,6 hPa 0,0 l/m 0,0 km/h (0 Bft) NO 45 0 min 0,0 UV-I -0,1 C -1,1 C 0,0 km/h (0 Bft)
22.10.2009 04:20 1,7 C 8,3 C 1,2 C 0,8 C -0,9 C 0,0 C 88 % 91 % 0 % 1006,6 hPa 0,0 l/m 0,2 km/h (0 Bft) O-SO 112 0 min 0,0 UV-I -0,1 C -0,9 C 0,0 km/h (0 Bft)
22.10.2009 04:25 1,9 C 8,2 C 1,4 C 1,0 C -0,8 C 0,0 C 88 % 92 % 0 % 1006,2 hPa 0,0 l/m 0,3 km/h (0 Bft) O-NO 67 0 min 0,0 UV-I 0,1 C -0,8 C 0,0 km/h (0 Bft)
22.10.2009 04:30 1,9 C 8,2 C 1,3 C 1,1 C -0,6 C 0,0 C 88 % 91 % 0 % 1006,2 hPa 0,0 l/m 0,2 km/h (0 Bft) NO 45 0 min 0,0 UV-I 0,1 C -0,6 C 0,0 km/h (0 Bft)
22.10.2009 04:35 1,9 C 8,2 C 1,4 C 1,1 C -0,6 C 0,0 C 88 % 92 % 0 % 1006,2 hPa 0,0 l/m 0,0 km/h (0 Bft) SO 135 0 min 0,0 UV-I 0,1 C -0,6 C 0,0 km/h (0 Bft)
22.10.2009 04:40 1,8 C 8,2 C 1,5 C 1,0 C -0,7 C 0,0 C 88 % 92 % 0 % 1006,2 hPa 0,0 l/m 0,0 km/h (0 Bft) O-NO 67 0 min 0,0 UV-I 0,0 C -0,7 C 0,0 km/h (0 Bft)
22.10.2009 04:45 1,9 C 8,2 C 1,5 C 1,0 C -0,8 C 0,0 C 88 % 91 % 0 % 1005,9 hPa 0,0 l/m 0,0 km/h (0 Bft) NO 45 0 min 0,0 UV-I 0,1 C -0,8 C 0,0 km/h (0 Bft)
22.10.2009 04:50 1,6 C 8,2 C 1,3 C 0,8 C -0,9 C 0,0 C 88 % 91 % 0 % 1005,9 hPa 0,0 l/m 0,0 km/h (0 Bft) O-NO 67 0 min 0,0 UV-I -0,2 C -0,9 C 0,0 km/h (0 Bft)
22.10.2009 04:55 1,6 C 8,2 C 1,3 C 0,8 C -0,8 C 0,0 C 88 % 91 % 0 % 1005,9 hPa 0,0 l/m 0,2 km/h (0 Bft) O-NO 67 0 min 0,0 UV-I -0,2 C -0,8 C 0,0 km/h (0 Bft)
22.10.2009 05:00 1,7 C 8,2 C 1,4 C 0,9 C -0,7 C 0,0 C 88 % 92 % 0 % 1005,9 hPa 0,0 l/m 0,2 km/h (0 Bft) O-NO 67 0 min 0,0 UV-I -0,1 C -0,7 C 0,0 km/h (0 Bft)
22.10.2009 05:10 1,7 C 8,2 C 1,4 C 0,8 C -1,0 C 0,0 C 88 % 92 % 0 % 1006,2 hPa 0,0 l/m 0,0 km/h (0 Bft) NW 315 0 min 0,0 UV-I -0,1 C -1,0 C 0,0 km/h (0 Bft)
22.10.2009 05:15 1,6 C 8,2 C 1,3 C 0,7 C -1,1 C 0,0 C 88 % 91 % 0 % 1006,2 hPa 0,0 l/m 0,2 km/h (0 Bft) SO 135 0 min 0,0 UV-I -0,2 C -1,1 C 0,0 km/h (0 Bft)
22.10.2009 05:20 1,7 C 8,2 C 1,3 C 0,8 C -1,1 C 0,0 C 88 % 92 % 0 % 1006,2 hPa 0,0 l/m 0,2 km/h (0 Bft) O 90 0 min 0,0 UV-I -0,1 C -1,1 C 0,0 km/h (0 Bft)
22.10.2009 05:25 1,6 C 8,2 C 1,3 C 0,7 C -1,1 C 0,0 C 88 % 92 % 0 % 1005,7 hPa 0,0 l/m 0,0 km/h (0 Bft) O 90 0 min 0,0 UV-I -0,2 C -1,1 C 0,0 km/h (0 Bft)
22.10.2009 05:30 1,7 C 8,2 C 1,3 C 0,7 C -1,2 C 0,0 C 88 % 92 % 0 % 1005,7 hPa 0,0 l/m 0,0 km/h (0 Bft) O 90 0 min 0,0 UV-I -0,1 C -1,2 C 0,0 km/h (0 Bft)
22.10.2009 05:35 1,6 C 8,1 C 1,3 C 0,7 C -1,2 C 0,0 C 88 % 91 % 0 % 1005,7 hPa 0,0 l/m 0,0 km/h (0 Bft) O 90 0 min 0,0 UV-I -0,2 C -1,2 C 0,0 km/h (0 Bft)
22.10.2009 05:40 1,7 C 8,1 C 1,2 C 0,8 C -1,1 C 0,0 C 89 % 92 % 0 % 1005,7 hPa 0,0 l/m 0,0 km/h (0 Bft) NO 45 0 min 0,0 UV-I 0,1 C -1,1 C 0,0 km/h (0 Bft)
22.10.2009 05:45 1,6 C 8,1 C 1,2 C 0,7 C -1,2 C 0,0 C 89 % 92 % 0 % 1006,1 hPa 0,0 l/m 0,0 km/h (0 Bft) NO 45 0 min 0,0 UV-I -0,0 C -1,2 C 0,0 km/h (0 Bft)
22.10.2009 05:50 1,6 C 8,1 C 1,2 C 0,7 C -1,2 C 0,0 C 89 % 92 % 0 % 1006,1 hPa 0,0 l/m 0,0 km/h (0 Bft) NO 45 0 min 0,0 UV-I -0,0 C -1,2 C 0,0 km/h (0 Bft)
22.10.2009 05:55 1,6 C 8,1 C 1,2 C 0,7 C -1,2 C 0,0 C 89 % 92 % 0 % 1006,1 hPa 0,0 l/m 0,0 km/h (0 Bft) NO 45 0 min 0,0 UV-I -0,0 C -1,2 C 0,0 km/h (0 Bft)
22.10.2009 06:00 1,6 C 8,1 C 1,2 C 0,7 C -1,1 C 0,0 C 89 % 92 % 0 % 1006,1 hPa 0,0 l/m 0,3 km/h (0 Bft) NO 45 0 min 0,0 UV-I -0,0 C -1,1 C 2,1 km/h (1 Bft)
22.10.2009 06:10 2,0 C 8,0 C 1,7 C 1,3 C -0,2 C 0,0 C 90 % 93 % 0 % 1005,6 hPa 0,0 l/m 2,6 km/h (1 Bft) NO 45 0 min 0,0 UV-I 0,5 C -0,2 C 2,6 km/h (1 Bft)
22.10.2009 06:15 2,1 C 8,0 C 1,8 C 1,4 C 0,1 C 0,0 C 90 % 92 % 0 % 1005,6 hPa 0,0 l/m 2,7 km/h (1 Bft) O-NO 67 0 min 0,0 UV-I 0,6 C 0,1 C 3,4 km/h (1 Bft)
22.10.2009 06:20 2,1 C 8,0 C 2,0 C 1,4 C 0,0 C 0,0 C 89 % 92 % 0 % 1005,6 hPa 0,0 l/m 3,4 km/h (1 Bft) NO 45 0 min 0,0 UV-I 0,5 C 0,0 C 4,0 km/h (1 Bft)
22.10.2009 06:25 2,1 C 7,9 C 2,0 C 1,4 C 0,1 C 0,0 C 89 % 92 % 0 % 1005,7 hPa 0,0 l/m 3,4 km/h (1 Bft) O-NO 67 0 min 0,0 UV-I 0,5 C 0,1 C 3,5 km/h (1 Bft)
22.10.2009 06:30 2,1 C 7,9 C 2,0 C 1,4 C 0,1 C 0,0 C 89 % 92 % 0 % 1005,7 hPa 0,0 l/m 3,7 km/h (1 Bft) O-NO 67 0 min 0,0 UV-I 0,5 C 0,1 C 6,0 km/h (2 Bft)
22.10.2009 06:35 2,1 C 7,9 C 2,1 C 1,4 C 0,0 C 0,0 C 89 % 92 % 0 % 1005,7 hPa 0,0 l/m 3,9 km/h (1 Bft) NO 45 0 min 0,0 UV-I 0,5 C 0,0 C 5,3 km/h (1 Bft)
22.10.2009 06:40 2,2 C 7,9 C 2,3 C 1,5 C 0,1 C 0,0 C 89 % 91 % 0 % 1005,7 hPa 0,0 l/m 3,9 km/h (1 Bft) NO 45 0 min 0,0 UV-I 0,6 C 0,1 C 6,1 km/h (2 Bft)
22.10.2009 06:45 2,3 C 7,9 C 2,3 C 1,5 C 0,0 C 0,0 C 89 % 91 % 0 % 1005,7 hPa 0,0 l/m 4,0 km/h (1 Bft) O-NO 67 0 min 0,0 UV-I 0,7 C 0,0 C 4,0 km/h (1 Bft)
22.10.2009 06:50 2,3 C 7,9 C 2,3 C 1,7 C 0,4 C 0,0 C 89 % 91 % 0 % 1005,7 hPa 0,0 l/m 3,4 km/h (1 Bft) O-NO 67 0 min 0,0 UV-I 0,7 C 0,4 C 4,3 km/h (1 Bft)
22.10.2009 06:55 2,4 C 7,7 C 2,4 C 1,7 C 0,4 C 0,0 C 89 % 91 % 0 % 1005,7 hPa 0,0 l/m 3,5 km/h (1 Bft) O 90 0 min 0,0 UV-I 0,8 C 0,4 C 4,5 km/h (1 Bft)
22.10.2009 07:00 2,3 C 7,9 C 2,5 C 1,6 C 0,3 C 0,0 C 89 % 91 % 0 % 1005,7 hPa 0,0 l/m 4,0 km/h (1 Bft) O-NO 67 0 min 0,0 UV-I 0,7 C 0,3 C 6,4 km/h (2 Bft)
22.10.2009 07:06 2,3 C 7,8 C 2,3 C 1,7 C 0,6 C 0,0 C 89 % 91 % 0 % 1005,3 hPa 0,0 l/m 3,1 km/h (1 Bft) O-NO 67 0 min 0,0 UV-I 0,7 C 0,6 C 3,5 km/h (1 Bft)
22.10.2009 07:07 2,3 C 7,8 C 2,3 C 1,7 C 0,6 C 0,0 C 89 % 91 % 0 % 1005,3 hPa 0,0 l/m 3,1 km/h (1 Bft) O-NO 67 0 min 0,0 UV-I 0,7 C 0,6 C 3,5 km/h (1 Bft)
22.10.2009 07:10 2,3 C 7,8 C 2,3 C 1,7 C 0,6 C 0,0 C 89 % 91 % 0 % 1005,3 hPa 0,0 l/m 3,1 km/h (1 Bft) O-NO 67 0 min 0,0 UV-I 0,7 C 0,6 C 3,5 km/h (1 Bft)
22.10.2009 07:15 2,3 C 7,9 C 2,3 C 1,8 C 0,8 C 0,0 C 89 % 91 % 0 % 1005,3 hPa 0,0 l/m 2,7 km/h (1 Bft) O-NO 67 0 min 0,0 UV-I 0,7 C 0,8 C 2,9 km/h (1 Bft)
22.10.2009 07:20 2,3 C 7,9 C 2,3 C 1,8 C 0,9 C 0,0 C 89 % 91 % 0 % 1005,3 hPa 0,0 l/m 1,6 km/h (1 Bft) O-NO 67 0 min 0,0 UV-I 0,7 C 0,9 C 0,0 km/h (0 Bft)
22.10.2009 07:25 2,3 C 7,7 C 2,2 C 1,8 C 0,8 C 0,0 C 89 % 91 % 0 % 1005,4 hPa 0,0 l/m 0,5 km/h (0 Bft) O-NO 67 0 min 0,0 UV-I 0,7 C 0,8 C 0,0 km/h (0 Bft)
22.10.2009 07:30 2,2 C 7,8 C 2,0 C 1,7 C 0,8 C 0,0 C 89 % 91 % 0 % 1005,4 hPa 0,0 l/m 0,3 km/h (0 Bft) NO 45 0 min 0,0 UV-I 0,6 C 0,8 C 0,0 km/h (0 Bft)
22.10.2009 07:35 2,3 C 7,8 C 2,0 C 1,8 C 0,9 C 0,0 C 89 % 91 % 0 % 1005,4 hPa 0,0 l/m 0,8 km/h (0 Bft) O-NO 67 0 min 0,0 UV-I 0,7 C 0,9 C 1,8 km/h (1 Bft)
22.10.2009 07:40 2,2 C 7,8 C 2,0 C 1,8 C 1,0 C 0,0 C 89 % 91 % 0 % 1005,4 hPa 0,0 l/m 1,8 km/h (1 Bft) O-NO 67 0 min 0,0 UV-I 0,6 C 1,0 C 4,0 km/h (1 Bft)
22.10.2009 07:45 2,1 C 7,8 C 2,0 C 1,7 C 1,0 C 0,0 C 89 % 91 % 0 % 1005,0 hPa 0,0 l/m 2,4 km/h (1 Bft) O-NO 67 0 min 0,0 UV-I 0,5 C 1,0 C 3,7 km/h (1 Bft)
22.10.2009 07:50 2,3 C 7,8 C 2,1 C 1,9 C 1,1 C 0,0 C 89 % 91 % 0 % 1005,0 hPa 0,0 l/m 2,4 km/h (1 Bft) O-NO 67 0 min 0,0 UV-I 0,7 C 1,1 C 1,6 km/h (1 Bft)
22.10.2009 07:55 2,3 C 7,8 C 2,2 C 1,9 C 1,1 C 0,0 C 89 % 91 % 0 % 1005,0 hPa 0,0 l/m 1,6 km/h (1 Bft) O-NO 67 0 min 0,0 UV-I 0,7 C 1,1 C 2,3 km/h (1 Bft)
22.10.2009 08:00 2,1 C 7,8 C 2,1 C 1,8 C 1,2 C 0,0 C 89 % 92 % 0 % 1005,0 hPa 0,0 l/m 1,6 km/h (1 Bft) NO 45 0 min 0,0 UV-I 0,5 C 1,2 C 2,6 km/h (1 Bft)
22.10.2009 08:10 2,3 C 7,8 C 2,2 C 1,9 C 1,1 C 0,0 C 89 % 91 % 0 % 1005,4 hPa 0,0 l/m 0,2 km/h (0 Bft) NO 45 0 min 0,0 UV-I 0,7 C 1,1 C 0,0 km/h (0 Bft)
22.10.2009 08:15 2,4 C 7,8 C 2,3 C 1,9 C 1,0 C 0,0 C 90 % 91 % 0 % 1005,4 hPa 0,0 l/m 0,0 km/h (0 Bft) S-SW 202 0 min 0,0 UV-I 0,9 C 1,0 C 0,0 km/h (0 Bft)
22.10.2009 08:20 2,3 C 7,8 C 2,3 C 1,9 C 1,0 C 0,0 C 89 % 92 % 0 % 1005,4 hPa 0,0 l/m 0,0 km/h (0 Bft) S-SO 157 0 min 0,0 UV-I 0,7 C 1,0 C 0,0 km/h (0 Bft)
22.10.2009 08:25 2,3 C 7,8 C 2,3 C 1,9 C 1,0 C 0,0 C 90 % 92 % 0 % 1005,9 hPa 0,0 l/m 0,0 km/h (0 Bft) S 180 0 min 0,0 UV-I 0,8 C 1,0 C 0,0 km/h (0 Bft)
22.10.2009 08:30 2,3 C 7,8 C 2,3 C 1,8 C 0,9 C 0,0 C 89 % 92 % 0 % 1005,9 hPa 0,0 l/m 0,0 km/h (0 Bft) W-SW 247 0 min 0,0 UV-I 0,7 C 0,9 C 0,0 km/h (0 Bft)
22.10.2009 08:35 2,4 C 7,8 C 2,3 C 1,9 C 0,9 C 0,0 C 90 % 92 % 0 % 1005,9 hPa 0,0 l/m 0,0 km/h (0 Bft) W-SW 247 0 min 0,0 UV-I 0,9 C 0,9 C 0,0 km/h (0 Bft)
22.10.2009 08:40 2,4 C 7,8 C 2,3 C 1,9 C 0,8 C 0,0 C 90 % 92 % 0 % 1005,9 hPa 0,0 l/m 0,0 km/h (0 Bft) SW 225 0 min 0,0 UV-I 0,9 C 0,8 C 0,0 km/h (0 Bft)
22.10.2009 08:45 2,5 C 7,8 C 2,3 C 2,0 C 0,9 C 0,0 C 90 % 92 % 0 % 1006,7 hPa 0,0 l/m 0,0 km/h (0 Bft) SW 225 0 min 0,0 UV-I 1,0 C 0,9 C 0,0 km/h (0 Bft)
22.10.2009 08:50 2,5 C 7,8 C 2,3 C 2,0 C 0,9 C 0,0 C 90 % 92 % 0 % 1006,7 hPa 0,0 l/m 0,0 km/h (0 Bft) S 180 0 min 0,0 UV-I 1,0 C 0,9 C 0,0 km/h (0 Bft)
22.10.2009 08:55 2,6 C 7,8 C 2,4 C 2,1 C 1,1 C 0,0 C 90 % 92 % 0 % 1006,7 hPa 0,0 l/m 0,0 km/h (0 Bft) S 180 0 min 0,0 UV-I 1,1 C 1,1 C 0,0 km/h (0 Bft)
22.10.2009 09:00 2,7 C 7,8 C 2,5 C 2,3 C 1,5 C 0,0 C 90 % 92 % 0 % 1006,7 hPa 0,0 l/m 0,0 km/h (0 Bft) O-NO 67 0 min 0,0 UV-I 1,2 C 1,5 C 0,0 km/h (0 Bft)
22.10.2009 09:10 2,8 C 7,8 C 2,7 C 2,5 C 2,0 C 0,0 C 90 % 92 % 0 % 1006,4 hPa 0,0 l/m 0,2 km/h (0 Bft) NO 45 0 min 0,0 UV-I 1,3 C 2,0 C 0,0 km/h (0 Bft)
22.10.2009 09:15 2,8 C 7,7 C 2,8 C 2,6 C 2,2 C 0,0 C 90 % 92 % 0 % 1006,4 hPa 0,0 l/m 0,0 km/h (0 Bft) O-NO 67 0 min 0,0 UV-I 1,3 C 2,2 C 0,0 km/h (0 Bft)
22.10.2009 09:20 2,9 C 7,7 C 2,8 C 2,7 C 2,3 C 0,0 C 90 % 92 % 0 % 1006,4 hPa 0,0 l/m 0,0 km/h (0 Bft) SO 135 0 min 0,0 UV-I 1,4 C 2,3 C 0,0 km/h (0 Bft)
22.10.2009 09:25 3,1 C 7,7 C 2,8 C 2,9 C 2,5 C 0,0 C 90 % 92 % 0 % 1006,1 hPa 0,0 l/m 0,2 km/h (0 Bft) W 270 0 min 0,0 UV-I 1,6 C 2,5 C 0,0 km/h (0 Bft)
22.10.2009 09:30 3,1 C 7,6 C 3,0 C 3,0 C 2,9 C 0,0 C 90 % 92 % 0 % 1006,1 hPa 0,0 l/m 0,3 km/h (0 Bft) W-SW 247 0 min 0,0 UV-I 1,6 C 2,9 C 1,8 km/h (1 Bft)
22.10.2009 09:35 3,2 C 7,6 C 3,1 C 3,2 C 3,2 C 0,0 C 90 % 92 % 0 % 1006,1 hPa 0,0 l/m 0,3 km/h (0 Bft) W-SW 247 0 min 0,0 UV-I 1,7 C 3,2 C 0,0 km/h (0 Bft)
22.10.2009 09:40 3,2 C 7,6 C 3,2 C 3,5 C 3,5 C 0,3 C 90 % 92 % 8 % 1006,1 hPa 0,0 l/m 0,2 km/h (0 Bft) S-SW 202 0 min 0,0 UV-I 1,7 C 3,5 C 0,0 km/h (0 Bft)
22.10.2009 09:45 3,3 C 7,6 C 3,2 C 3,5 C 3,5 C 0,2 C 90 % 92 % 5 % 1006,5 hPa 0,0 l/m 0,0 km/h (0 Bft) S-SW 202 0 min 0,0 UV-I 1,8 C 3,5 C 0,0 km/h (0 Bft)
22.10.2009 09:50 3,5 C 7,6 C 3,2 C 3,6 C 3,6 C 0,1 C 90 % 92 % 3 % 1006,5 hPa 0,0 l/m 0,0 km/h (0 Bft) N-NO 22 0 min 0,0 UV-I 2,0 C 3,6 C 0,0 km/h (0 Bft)
22.10.2009 09:55 3,5 C 7,6 C 3,3 C 3,6 C 3,6 C 0,1 C 90 % 92 % 3 % 1006,5 hPa 0,0 l/m 0,0 km/h (0 Bft) N-NW 337 0 min 0,0 UV-I 2,0 C 3,6 C 0,0 km/h (0 Bft)
22.10.2009 10:00 3,5 C 7,6 C 3,4 C 3,6 C 3,6 C 0,1 C 90 % 92 % 3 % 1006,5 hPa 0,0 l/m 0,0 km/h (0 Bft) O-NO 67 0 min 0,0 UV-I 2,0 C 3,6 C 0,0 km/h (0 Bft)
22.10.2009 10:10 3,6 C 7,6 C 3,7 C 3,7 C 3,7 C 0,1 C 90 % 92 % 3 % 1006,5 hPa 0,0 l/m 0,0 km/h (0 Bft) SW 225 0 min 0,0 UV-I 2,1 C 3,7 C 0,0 km/h (0 Bft)
22.10.2009 10:15 3,6 C 7,6 C 3,7 C 3,7 C 3,7 C 0,1 C 90 % 92 % 3 % 1006,5 hPa 0,0 l/m 0,0 km/h (0 Bft) SO 135 0 min 0,0 UV-I 2,1 C 3,7 C 0,0 km/h (0 Bft)
22.10.2009 10:20 3,9 C 7,6 C 3,9 C 3,9 C 3,9 C 0,0 C 90 % 92 % 0 % 1006,5 hPa 0,0 l/m 0,0 km/h (0 Bft) S-SW 202 0 min 0,1 UV-I 2,4 C 3,9 C 0,0 km/h (0 Bft)
22.10.2009 10:25 3,9 C 7,5 C 3,8 C 4,0 C 4,0 C 0,1 C 90 % 92 % 3 % 1006,1 hPa 0,0 l/m 0,2 km/h (0 Bft) S 180 0 min 0,1 UV-I 2,4 C 4,0 C 1,9 km/h (1 Bft)
22.10.2009 10:30 3,9 C 7,5 C 3,9 C 4,2 C 4,2 C 0,3 C 90 % 92 % 8 % 1006,1 hPa 0,0 l/m 0,2 km/h (0 Bft) O-NO 67 0 min 0,1 UV-I 2,4 C 4,2 C 0,0 km/h (0 Bft)
22.10.2009 10:35 4,0 C 7,6 C 4,0 C 4,3 C 4,3 C 0,3 C 90 % 92 % 8 % 1006,1 hPa 0,0 l/m 0,2 km/h (0 Bft) N-NO 22 0 min 0,1 UV-I 2,5 C 4,3 C 0,0 km/h (0 Bft)
22.10.2009 10:40 4,1 C 7,6 C 4,1 C 4,6 C 4,6 C 0,5 C 90 % 92 % 13 % 1006,1 hPa 0,0 l/m 0,3 km/h (0 Bft) NO 45 0 min 0,1 UV-I 2,6 C 4,6 C 2,6 km/h (1 Bft)
22.10.2009 10:45 4,1 C 7,5 C 4,1 C 4,7 C 4,7 C 0,6 C 90 % 91 % 16 % 1005,8 hPa 0,0 l/m 0,6 km/h (0 Bft) NO 45 0 min 0,1 UV-I 2,6 C 4,7 C 0,0 km/h (0 Bft)
22.10.2009 10:50 4,1 C 7,5 C 4,1 C 5,0 C 5,0 C 0,9 C 90 % 91 % 24 % 1005,8 hPa 0,0 l/m 0,6 km/h (0 Bft) W-SW 247 0 min 0,1 UV-I 2,6 C 5,0 C 0,0 km/h (0 Bft)
22.10.2009 10:55 4,2 C 7,5 C 4,2 C 5,2 C 5,2 C 1,0 C 90 % 91 % 26 % 1005,8 hPa 0,0 l/m 0,0 km/h (0 Bft) NO 45 0 min 0,1 UV-I 2,7 C 5,2 C 0,0 km/h (0 Bft)
22.10.2009 11:00 4,3 C 7,4 C 4,4 C 5,5 C 5,5 C 1,2 C 90 % 92 % 32 % 1005,8 hPa 0,0 l/m 0,2 km/h (0 Bft) W-SW 247 0 min 0,1 UV-I 2,8 C 5,5 C 2,4 km/h (1 Bft)
22.10.2009 11:10 4,4 C 7,5 C 4,5 C 5,5 C 5,5 C 1,1 C 90 % 91 % 29 % 1005,8 hPa 0,0 l/m 0,5 km/h (0 Bft) SW 225 0 min 0,1 UV-I 2,9 C 5,5 C 0,0 km/h (0 Bft)
22.10.2009 11:15 4,4 C 7,5 C 4,5 C 5,6 C 5,6 C 1,2 C 90 % 91 % 32 % 1005,8 hPa 0,0 l/m 0,2 km/h (0 Bft) SW 225 0 min 0,1 UV-I 2,9 C 5,6 C 0,0 km/h (0 Bft)
22.10.2009 11:20 4,6 C 7,5 C 4,7 C 6,0 C 6,0 C 1,4 C 90 % 92 % 37 % 1005,8 hPa 0,0 l/m 0,0 km/h (0 Bft) SW 225 0 min 0,1 UV-I 3,1 C 6,0 C 0,0 km/h (0 Bft)
22.10.2009 11:25 4,8 C 7,5 C 4,8 C 6,3 C 6,3 C 1,5 C 90 % 92 % 39 % 1005,9 hPa 0,0 l/m 0,0 km/h (0 Bft) W-NW 292 0 min 0,1 UV-I 3,3 C 6,3 C 0,0 km/h (0 Bft)
22.10.2009 11:30 4,9 C 7,5 C 5,2 C 7,0 C 7,0 C 2,1 C 90 % 92 % 55 % 1005,9 hPa 0,0 l/m 0,2 km/h (0 Bft) W 270 0 min 0,3 UV-I 3,4 C 7,0 C 0,0 km/h (0 Bft)
22.10.2009 11:35 5,3 C 7,4 C 5,5 C 7,5 C 7,5 C 2,2 C 91 % 93 % 58 % 1005,9 hPa 0,0 l/m 0,2 km/h (0 Bft) O-NO 67 0 min 0,3 UV-I 4,0 C 7,5 C 0,0 km/h (0 Bft)
22.10.2009 11:40 5,7 C 7,5 C 5,9 C 8,3 C 8,3 C 2,6 C 91 % 93 % 68 % 1005,9 hPa 0,0 l/m 0,5 km/h (0 Bft) O-NO 67 0 min 0,4 UV-I 4,3 C 8,3 C 3,5 km/h (1 Bft)
22.10.2009 11:45 6,0 C 7,5 C 6,1 C 8,5 C 8,5 C 2,5 C 91 % 92 % 66 % 1005,6 hPa 0,0 l/m 0,8 km/h (0 Bft) O-NO 67 0 min 0,4 UV-I 4,6 C 8,5 C 3,1 km/h (1 Bft)
22.10.2009 11:50 6,4 C 7,5 C 6,6 C 8,9 C 8,9 C 2,5 C 90 % 92 % 66 % 1005,6 hPa 0,0 l/m 1,9 km/h (1 Bft) O-NO 67 0 min 0,4 UV-I 4,9 C 8,9 C 2,7 km/h (1 Bft)
22.10.2009 11:55 6,5 C 7,5 C 6,8 C 9,2 C 9,2 C 2,7 C 90 % 92 % 71 % 1005,6 hPa 0,0 l/m 1,6 km/h (1 Bft) W-NW 292 0 min 0,4 UV-I 5,0 C 9,2 C 0,0 km/h (0 Bft)
22.10.2009 12:00 6,5 C 7,5 C 6,9 C 9,5 C 9,5 C 3,0 C 90 % 91 % 79 % 1005,6 hPa 0,0 l/m 0,5 km/h (0 Bft) O 90 0 min 0,3 UV-I 5,0 C 9,5 C 0,0 km/h (0 Bft)
22.10.2009 12:10 7,3 C 7,5 C 7,5 C 10,3 C 10,3 C 3,0 C 89 % 90 % 79 % 1006,3 hPa 0,0 l/m 2,6 km/h (1 Bft) O-NO 67 0 min 0,4 UV-I 5,6 C 10,3 C 7,1 km/h (2 Bft)
22.10.2009 12:15 7,5 C 7,4 C 7,7 C 10,6 C 10,6 C 3,1 C 89 % 90 % 82 % 1006,3 hPa 0,0 l/m 3,1 km/h (1 Bft) O-NO 67 0 min 0,4 UV-I 5,8 C 10,6 C 4,0 km/h (1 Bft)
22.10.2009 12:20 8,1 C 7,4 C 8,1 C 11,3 C 11,3 C 3,2 C 87 % 88 % 84 % 1006,3 hPa 0,0 l/m 3,9 km/h (1 Bft) NO 45 0 min 0,5 UV-I 6,1 C 11,3 C 9,3 km/h (2 Bft)
22.10.2009 12:25 8,3 C 7,4 C 8,4 C 11,2 C 11,2 C 2,9 C 85 % 87 % 76 % 1005,2 hPa 0,0 l/m 6,1 km/h (2 Bft) O-NO 67 0 min 0,5 UV-I 5,9 C 11,2 C 10,5 km/h (2 Bft)
22.10.2009 12:30 8,5 C 7,4 C 8,7 C 11,4 C 11,4 C 2,9 C 85 % 87 % 76 % 1005,2 hPa 0,0 l/m 6,8 km/h (2 Bft) O-NO 67 0 min 0,4 UV-I 6,1 C 11,4 C 11,6 km/h (2 Bft)
22.10.2009 12:35 8,7 C 7,4 C 8,8 C 12,1 C 12,1 C 3,4 C 85 % 86 % 89 % 1005,2 hPa 0,0 l/m 6,0 km/h (2 Bft) O-NO 67 5 min 0,4 UV-I 6,3 C 12,1 C 12,6 km/h (3 Bft)
22.10.2009 12:40 8,9 C 7,4 C 9,1 C 12,0 C 12,0 C 3,1 C 84 % 86 % 82 % 1005,2 hPa 0,0 l/m 6,0 km/h (2 Bft) NO 45 0 min 0,4 UV-I 6,3 C 12,0 C 3,7 km/h (1 Bft)
22.10.2009 12:45 8,8 C 7,4 C 9,1 C 12,0 C 12,0 C 3,2 C 84 % 85 % 84 % 1005,4 hPa 0,0 l/m 4,8 km/h (1 Bft) O-NO 67 0 min 0,4 UV-I 6,2 C 12,0 C 4,0 km/h (1 Bft)
22.10.2009 12:50 8,9 C 7,5 C 8,9 C 12,3 C 12,3 C 3,4 C 85 % 85 % 89 % 1005,4 hPa 0,0 l/m 3,1 km/h (1 Bft) O-NO 67 5 min 0,3 UV-I 6,5 C 12,3 C 4,5 km/h (1 Bft)
22.10.2009 12:55 8,9 C 7,5 C 8,9 C 12,4 C 12,4 C 3,5 C 85 % 85 % 92 % 1005,4 hPa 0,0 l/m 4,0 km/h (1 Bft) O-NO 67 5 min 0,3 UV-I 6,5 C 12,4 C 8,5 km/h (2 Bft)
22.10.2009 13:00 8,9 C 7,5 C 8,9 C 11,7 C 11,7 C 2,8 C 85 % 85 % 74 % 1005,4 hPa 0,0 l/m 5,0 km/h (1 Bft) O 90 0 min 0,4 UV-I 6,5 C 11,7 C 3,9 km/h (1 Bft)
22.10.2009 13:10 9,1 C 7,5 C 9,1 C 11,4 C 11,4 C 2,3 C 85 % 86 % 61 % 1005,2 hPa 0,0 l/m 3,1 km/h (1 Bft) O 90 0 min 0,3 UV-I 6,7 C 11,4 C 3,1 km/h (1 Bft)
22.10.2009 13:15 9,1 C 7,5 C 9,1 C 11,3 C 11,3 C 2,2 C 85 % 86 % 58 % 1005,2 hPa 0,0 l/m 2,7 km/h (1 Bft) O-SO 112 0 min 0,3 UV-I 6,7 C 11,3 C 1,8 km/h (1 Bft)
22.10.2009 13:20 9,1 C 7,5 C 9,1 C 11,3 C 11,3 C 2,2 C 85 % 86 % 58 % 1005,2 hPa 0,0 l/m 1,6 km/h (1 Bft) NO 45 0 min 0,2 UV-I 6,7 C 11,3 C 0,0 km/h (0 Bft)
22.10.2009 13:25 8,9 C 7,6 C 9,0 C 11,2 C 11,2 C 2,3 C 85 % 86 % 61 % 1005,6 hPa 0,0 l/m 1,6 km/h (1 Bft) NO 45 0 min 0,2 UV-I 6,5 C 11,2 C 2,3 km/h (1 Bft)
22.10.2009 13:30 8,8 C 7,6 C 8,9 C 10,9 C 10,9 C 2,1 C 85 % 86 % 55 % 1005,6 hPa 0,0 l/m 1,9 km/h (1 Bft) O-SO 112 0 min 0,2 UV-I 6,4 C 10,9 C 1,9 km/h (1 Bft)
22.10.2009 13:35 8,7 C 7,6 C 8,9 C 10,7 C 10,7 C 2,0 C 85 % 86 % 53 % 1005,6 hPa 0,0 l/m 2,4 km/h (1 Bft) O-NO 67 0 min 0,2 UV-I 6,3 C 10,7 C 3,5 km/h (1 Bft)
22.10.2009 13:40 8,6 C 7,6 C 8,6 C 10,4 C 10,4 C 1,8 C 85 % 86 % 47 % 1005,6 hPa 0,0 l/m 2,3 km/h (1 Bft) O-NO 67 0 min 0,1 UV-I 6,2 C 10,4 C 2,3 km/h (1 Bft)
22.10.2009 13:45 8,5 C 7,6 C 8,7 C 10,2 C 10,2 C 1,7 C 86 % 87 % 45 % 1005,2 hPa 0,0 l/m 2,1 km/h (1 Bft) NO 45 0 min 0,1 UV-I 6,3 C 10,2 C 3,1 km/h (1 Bft)
22.10.2009 13:50 8,5 C 7,7 C 8,5 C 9,9 C 9,9 C 1,4 C 86 % 87 % 37 % 1005,2 hPa 0,0 l/m 2,3 km/h (1 Bft) N-NO 22 0 min 0,1 UV-I 6,3 C 9,9 C 4,3 km/h (1 Bft)
22.10.2009 13:55 8,4 C 7,7 C 8,5 C 9,8 C 9,8 C 1,4 C 86 % 87 % 37 % 1005,2 hPa 0,0 l/m 2,7 km/h (1 Bft) O-NO 67 0 min 0,1 UV-I 6,2 C 9,8 C 2,9 km/h (1 Bft)
22.10.2009 14:00 8,4 C 7,8 C 8,4 C 9,6 C 9,6 C 1,2 C 86 % 87 % 32 % 1005,2 hPa 0,0 l/m 2,7 km/h (1 Bft) O-NO 67 0 min 0,1 UV-I 6,2 C 9,6 C 3,1 km/h (1 Bft)
22.10.2009 14:06 8,4 C 7,8 C 8,3 C 9,6 C 9,6 C 1,2 C 86 % 87 % 32 % 1005,0 hPa 0,0 l/m 2,7 km/h (1 Bft) O-NO 67 0 min 0,1 UV-I 6,2 C 9,6 C 3,2 km/h (1 Bft)
22.10.2009 14:10 8,4 C 7,8 C 8,4 C 9,7 C 9,7 C 1,3 C 86 % 87 % 34 % 1005,0 hPa 0,0 l/m 1,8 km/h (1 Bft) O-NO 67 0 min 0,1 UV-I 6,2 C 9,7 C 1,8 km/h (1 Bft)
22.10.2009 14:15 8,4 C 7,8 C 8,4 C 9,8 C 9,8 C 1,4 C 86 % 87 % 37 % 1005,0 hPa 0,0 l/m 1,1 km/h (1 Bft) O-NO 67 0 min 0,1 UV-I 6,2 C 9,8 C 2,3 km/h (1 Bft)
22.10.2009 14:20 8,4 C 7,8 C 8,4 C 10,0 C 10,0 C 1,6 C 86 % 87 % 42 % 1005,0 hPa 0,0 l/m 0,5 km/h (0 Bft) O 90 0 min 0,2 UV-I 6,2 C 10,0 C 0,0 km/h (0 Bft)
22.10.2009 14:25 8,4 C 7,8 C 8,4 C 10,1 C 10,1 C 1,7 C 86 % 87 % 45 % 1005,6 hPa 0,0 l/m 0,5 km/h (0 Bft) N-NO 22 0 min 0,2 UV-I 6,2 C 10,1 C 2,6 km/h (1 Bft)
22.10.2009 14:30 8,5 C 7,7 C 8,4 C 10,3 C 10,3 C 1,8 C 86 % 87 % 47 % 1005,6 hPa 0,0 l/m 1,1 km/h (1 Bft) O 90 0 min 0,2 UV-I 6,3 C 10,3 C 0,0 km/h (0 Bft)
22.10.2009 14:35 8,5 C 7,7 C 8,5 C 10,6 C 10,6 C 2,1 C 86 % 87 % 55 % 1005,6 hPa 0,0 l/m 1,0 km/h (0 Bft) SO 135 0 min 0,2 UV-I 6,3 C 10,6 C 0,0 km/h (0 Bft)
22.10.2009 14:40 8,6 C 7,7 C 8,7 C 10,9 C 10,9 C 2,3 C 86 % 87 % 61 % 1005,6 hPa 0,0 l/m 0,2 km/h (0 Bft) S-SW 202 0 min 0,2 UV-I 6,4 C 10,9 C 1,8 km/h (1 Bft)
22.10.2009 14:45 8,7 C 7,9 C 8,7 C 10,9 C 10,9 C 2,2 C 86 % 87 % 58 % 1005,4 hPa 0,0 l/m 0,3 km/h (0 Bft) O-NO 67 0 min 0,2 UV-I 6,5 C 10,9 C 0,0 km/h (0 Bft)
22.10.2009 14:50 8,5 C 7,9 C 8,6 C 10,8 C 10,8 C 2,3 C 86 % 87 % 61 % 1005,4 hPa 0,0 l/m 0,6 km/h (0 Bft) NW 315 0 min 0,1 UV-I 6,3 C 10,8 C 3,9 km/h (1 Bft)
22.10.2009 14:55 8,5 C 7,9 C 8,7 C 10,7 C 10,7 C 2,2 C 86 % 87 % 58 % 1005,4 hPa 0,0 l/m 0,5 km/h (0 Bft) O-SO 112 0 min 0,1 UV-I 6,3 C 10,7 C 0,0 km/h (0 Bft)
22.10.2009 15:00 8,5 C 7,9 C 8,5 C 10,4 C 10,4 C 1,9 C 86 % 87 % 50 % 1005,4 hPa 0,0 l/m 0,8 km/h (0 Bft) NW 315 0 min 0,0 UV-I 6,3 C 10,4 C 1,9 km/h (1 Bft)
22.10.2009 15:10 8,3 C 7,9 C 8,4 C 9,8 C 9,8 C 1,5 C 86 % 87 % 39 % 1005,9 hPa 0,0 l/m 0,5 km/h (0 Bft) O-NO 67 0 min 0,0 UV-I 6,1 C 9,8 C 0,0 km/h (0 Bft)
22.10.2009 15:15 8,3 C 7,9 C 8,3 C 9,6 C 9,6 C 1,3 C 86 % 87 % 34 % 1005,9 hPa 0,0 l/m 0,2 km/h (0 Bft) W 270 0 min 0,0 UV-I 6,1 C 9,6 C 0,0 km/h (0 Bft)
22.10.2009 15:20 8,2 C 8,0 C 8,3 C 9,2 C 9,2 C 1,0 C 86 % 87 % 26 % 1005,9 hPa 0,0 l/m 0,8 km/h (0 Bft) NW 315 0 min 0,0 UV-I 6,0 C 9,2 C 1,9 km/h (1 Bft)
22.10.2009 15:25 8,2 C 8,0 C 8,2 C 8,9 C 8,9 C 0,7 C 86 % 88 % 18 % 1006,4 hPa 0,0 l/m 1,3 km/h (1 Bft) N-NW 337 0 min 0,0 UV-I 6,0 C 8,9 C 1,9 km/h (1 Bft)
22.10.2009 15:30 8,0 C 8,0 C 8,1 C 8,6 C 8,6 C 0,6 C 86 % 88 % 16 % 1006,4 hPa 0,0 l/m 1,0 km/h (0 Bft) N-NO 22 0 min 0,0 UV-I 5,8 C 8,6 C 0,0 km/h (0 Bft)
22.10.2009 15:35 8,0 C 8,0 C 7,9 C 8,5 C 8,5 C 0,5 C 86 % 88 % 13 % 1006,4 hPa 0,0 l/m 0,8 km/h (0 Bft) O-NO 67 0 min 0,0 UV-I 5,8 C 8,5 C 1,9 km/h (1 Bft)
22.10.2009 15:40 7,9 C 8,0 C 7,9 C 8,4 C 8,4 C 0,5 C 86 % 88 % 13 % 1006,4 hPa 0,0 l/m 0,8 km/h (0 Bft) N-NW 337 0 min 0,0 UV-I 5,7 C 8,4 C 0,0 km/h (0 Bft)
22.10.2009 15:45 7,9 C 8,0 C 7,9 C 8,3 C 8,3 C 0,4 C 86 % 89 % 11 % 1006,1 hPa 0,0 l/m 0,6 km/h (0 Bft) S-SW 202 0 min 0,0 UV-I 5,7 C 8,3 C 0,0 km/h (0 Bft)
22.10.2009 15:50 7,9 C 8,0 C 7,7 C 8,3 C 8,3 C 0,4 C 87 % 89 % 11 % 1006,1 hPa 0,0 l/m 0,8 km/h (0 Bft) O 90 0 min 0,0 UV-I 5,9 C 8,3 C 0,0 km/h (0 Bft)
22.10.2009 15:55 7,9 C 8,1 C 7,7 C 8,3 C 8,3 C 0,4 C 87 % 88 % 11 % 1006,1 hPa 0,0 l/m 1,3 km/h (1 Bft) N-NO 22 0 min 0,0 UV-I 5,9 C 8,3 C 2,1 km/h (1 Bft)
22.10.2009 16:00 7,7 C 8,1 C 7,6 C 8,2 C 8,2 C 0,5 C 87 % 88 % 13 % 1006,1 hPa 0,0 l/m 1,8 km/h (1 Bft) NW 315 0 min 0,0 UV-I 5,7 C 8,2 C 3,9 km/h (1 Bft)
22.10.2009 16:10 7,6 C 8,1 C 7,5 C 8,1 C 8,1 C 0,5 C 87 % 89 % 13 % 1005,9 hPa 0,0 l/m 1,0 km/h (0 Bft) N-NW 337 0 min 0,0 UV-I 5,6 C 8,1 C 0,0 km/h (0 Bft)
22.10.2009 16:15 7,6 C 8,1 C 7,6 C 8,0 C 8,0 C 0,4 C 87 % 89 % 11 % 1005,9 hPa 0,0 l/m 0,5 km/h (0 Bft) N-NW 337 0 min 0,0 UV-I 5,6 C 8,0 C 0,0 km/h (0 Bft)
22.10.2009 16:20 7,7 C 8,1 C 7,5 C 8,0 C 8,0 C 0,3 C 87 % 89 % 8 % 1005,9 hPa 0,0 l/m 0,6 km/h (0 Bft) N-NW 337 0 min 0,0 UV-I 5,7 C 8,0 C 2,9 km/h (1 Bft)
22.10.2009 16:25 7,6 C 8,1 C 7,5 C 7,9 C 7,9 C 0,3 C 87 % 89 % 8 % 1006,9 hPa 0,0 l/m 0,6 km/h (0 Bft) N 360 0 min 0,0 UV-I 5,6 C 7,9 C 0,0 km/h (0 Bft)
22.10.2009 16:30 7,5 C 8,2 C 7,5 C 7,8 C 7,8 C 0,3 C 87 % 89 % 8 % 1006,9 hPa 0,0 l/m 0,3 km/h (0 Bft) NW 315 0 min 0,0 UV-I 5,5 C 7,8 C 2,1 km/h (1 Bft)
22.10.2009 16:35 7,5 C 8,1 C 7,5 C 7,8 C 7,8 C 0,3 C 87 % 89 % 8 % 1006,9 hPa 0,0 l/m 0,2 km/h (0 Bft) NW 315 0 min 0,0 UV-I 5,5 C 7,8 C 0,0 km/h (0 Bft)
22.10.2009 16:40 7,5 C 8,2 C 7,3 C 7,8 C 7,8 C 0,3 C 88 % 89 % 8 % 1006,9 hPa 0,0 l/m 0,5 km/h (0 Bft) N-NW 337 0 min 0,0 UV-I 5,6 C 7,8 C 0,0 km/h (0 Bft)
22.10.2009 16:45 7,5 C 8,2 C 7,4 C 7,7 C 7,7 C 0,2 C 88 % 89 % 5 % 1006,7 hPa 0,0 l/m 0,3 km/h (0 Bft) N-NW 337 0 min 0,0 UV-I 5,6 C 7,7 C 0,0 km/h (0 Bft)
22.10.2009 16:50 7,5 C 8,2 C 7,3 C 7,7 C 7,7 C 0,2 C 88 % 90 % 5 % 1006,7 hPa 0,0 l/m 0,0 km/h (0 Bft) NW 315 0 min 0,0 UV-I 5,6 C 7,7 C 0,0 km/h (0 Bft)
22.10.2009 16:55 7,5 C 8,2 C 7,3 C 7,7 C 7,7 C 0,2 C 88 % 90 % 5 % 1006,7 hPa 0,0 l/m 0,0 km/h (0 Bft) W 270 0 min 0,0 UV-I 5,6 C 7,7 C 0,0 km/h (0 Bft)
22.10.2009 17:00 7,5 C 8,2 C 7,3 C 7,7 C 7,7 C 0,2 C 88 % 90 % 5 % 1006,7 hPa 0,0 l/m 0,0 km/h (0 Bft) N 360 0 min 0,0 UV-I 5,6 C 7,7 C 0,0 km/h (0 Bft)
22.10.2009 17:06 7,5 C 8,2 C 7,2 C 7,7 C 7,7 C 0,2 C 88 % 90 % 5 % 1007,3 hPa 0,0 l/m 0,0 km/h (0 Bft) NO 45 0 min 0,0 UV-I 5,6 C 7,7 C 0,0 km/h (0 Bft)
22.10.2009 17:10 7,5 C 8,3 C 7,2 C 7,7 C 7,7 C 0,2 C 88 % 90 % 5 % 1007,3 hPa 0,0 l/m 0,0 km/h (0 Bft) O-NO 67 0 min 0,0 UV-I 5,6 C 7,7 C 0,0 km/h (0 Bft)
22.10.2009 17:15 7,5 C 8,3 C 7,2 C 7,7 C 7,7 C 0,2 C 88 % 90 % 5 % 1007,3 hPa 0,0 l/m 0,0 km/h (0 Bft) NO 45 0 min 0,0 UV-I 5,6 C 7,7 C 0,0 km/h (0 Bft)
22.10.2009 17:20 7,5 C 8,3 C 7,2 C 7,5 C 7,5 C 0,0 C 88 % 90 % 0 % 1007,3 hPa 0,0 l/m 0,0 km/h (0 Bft) W-SW 247 0 min 0,0 UV-I 5,6 C 7,5 C 0,0 km/h (0 Bft)
22.10.2009 17:25 7,5 C 8,3 C 7,3 C 7,5 C 7,5 C 0,0 C 88 % 91 % 0 % 1006,9 hPa 0,0 l/m 0,0 km/h (0 Bft) NO 45 0 min 0,0 UV-I 5,6 C 7,5 C 0,0 km/h (0 Bft)
22.10.2009 17:30 7,5 C 8,3 C 7,2 C 7,5 C 7,5 C 0,0 C 88 % 90 % 0 % 1006,9 hPa 0,0 l/m 0,0 km/h (0 Bft) NO 45 0 min 0,0 UV-I 5,6 C 7,5 C 0,0 km/h (0 Bft)
22.10.2009 17:35 7,3 C 8,3 C 7,2 C 7,4 C 7,4 C 0,1 C 89 % 90 % 3 % 1006,9 hPa 0,0 l/m 0,0 km/h (0 Bft) NO 45 0 min 0,0 UV-I 5,6 C 7,4 C 0,0 km/h (0 Bft)
22.10.2009 17:40 7,3 C 8,3 C 7,1 C 7,3 C 7,3 C 0,0 C 89 % 90 % 0 % 1006,9 hPa 0,0 l/m 0,2 km/h (0 Bft) W-NW 292 0 min 0,0 UV-I 5,6 C 7,3 C 0,0 km/h (0 Bft)
22.10.2009 17:45 7,3 C 8,5 C 7,1 C 7,3 C 7,3 C 0,0 C 89 % 91 % 0 % 1007,0 hPa 0,0 l/m 0,2 km/h (0 Bft) W-NW 292 0 min 0,0 UV-I 5,6 C 7,3 C 0,0 km/h (0 Bft)
22.10.2009 17:50 7,2 C 8,5 C 7,1 C 7,3 C 7,3 C 0,1 C 89 % 91 % 3 % 1007,0 hPa 0,0 l/m 0,0 km/h (0 Bft) W-SW 247 0 min 0,0 UV-I 5,5 C 7,3 C 0,0 km/h (0 Bft)
22.10.2009 17:55 7,2 C 8,5 C 7,1 C 7,3 C 7,3 C 0,1 C 89 % 91 % 0 % 1007,0 hPa 0,0 l/m 0,2 km/h (0 Bft) NO 45 0 min 0,0 UV-I 5,5 C 7,3 C 0,0 km/h (0 Bft)
22.10.2009 18:00 7,2 C 8,5 C 7,1 C 7,2 C 7,2 C 0,0 C 89 % 91 % 0 % 1007,0 hPa 0,0 l/m 0,2 km/h (0 Bft) NO 45 0 min 0,0 UV-I 5,5 C 7,2 C 0,0 km/h (0 Bft)
22.10.2009 18:10 7,1 C 8,6 C 7,0 C 7,1 C 7,0 C 0,0 C 89 % 91 % 0 % 1007,7 hPa 0,0 l/m 0,0 km/h (0 Bft) NO 45 0 min 0,0 UV-I 5,4 C 7,0 C 0,0 km/h (0 Bft)
22.10.2009 18:15 7,1 C 8,6 C 7,1 C 7,1 C 7,0 C 0,0 C 90 % 91 % 0 % 1007,7 hPa 0,0 l/m 0,0 km/h (0 Bft) NO 45 0 min 0,0 UV-I 5,6 C 7,0 C 0,0 km/h (0 Bft)
22.10.2009 18:20 7,1 C 8,7 C 7,1 C 7,0 C 6,9 C 0,0 C 90 % 92 % 0 % 1007,7 hPa 0,0 l/m 0,0 km/h (0 Bft) NO 45 0 min 0,0 UV-I 5,6 C 6,9 C 0,0 km/h (0 Bft)
22.10.2009 18:25 7,0 C 8,7 C 7,0 C 6,9 C 6,8 C 0,0 C 90 % 92 % 0 % 1007,9 hPa 0,0 l/m 0,0 km/h (0 Bft) NO 45 0 min 0,0 UV-I 5,5 C 6,8 C 0,0 km/h (0 Bft)
22.10.2009 18:30 7,1 C 8,8 C 6,9 C 7,0 C 6,8 C 0,0 C 90 % 92 % 0 % 1007,9 hPa 0,0 l/m 0,0 km/h (0 Bft) NO 45 0 min 0,0 UV-I 5,6 C 6,8 C 0,0 km/h (0 Bft)
22.10.2009 18:35 7,0 C 8,8 C 6,8 C 6,9 C 6,7 C 0,0 C 90 % 92 % 0 % 1007,9 hPa 0,0 l/m 0,0 km/h (0 Bft) NO 45 0 min 0,0 UV-I 5,5 C 6,7 C 0,0 km/h (0 Bft)
22.10.2009 18:40 6,9 C 8,8 C 6,8 C 6,8 C 6,5 C 0,0 C 90 % 92 % 0 % 1007,9 hPa 0,0 l/m 0,0 km/h (0 Bft) NO 45 0 min 0,0 UV-I 5,4 C 6,5 C 0,0 km/h (0 Bft)
22.10.2009 18:45 6,9 C 8,8 C 6,8 C 6,8 C 6,5 C 0,0 C 90 % 92 % 0 % 1007,4 hPa 0,0 l/m 0,0 km/h (0 Bft) NO 45 0 min 0,0 UV-I 5,4 C 6,5 C 0,0 km/h (0 Bft)
22.10.2009 18:50 6,9 C 8,8 C 6,8 C 6,8 C 6,5 C 0,0 C 90 % 92 % 0 % 1007,4 hPa 0,0 l/m 0,0 km/h (0 Bft) NO 45 0 min 0,0 UV-I 5,4 C 6,5 C 0,0 km/h (0 Bft)
22.10.2009 18:55 6,9 C 8,8 C 6,8 C 6,7 C 6,4 C 0,0 C 90 % 92 % 0 % 1007,4 hPa 0,0 l/m 0,0 km/h (0 Bft) NO 45 0 min 0,0 UV-I 5,4 C 6,4 C 0,0 km/h (0 Bft)
22.10.2009 19:00 6,8 C 8,8 C 6,7 C 6,7 C 6,4 C 0,0 C 91 % 92 % 0 % 1007,4 hPa 0,0 l/m 0,0 km/h (0 Bft) NO 45 0 min 0,0 UV-I 5,4 C 6,4 C 0,0 km/h (0 Bft)
22.10.2009 19:06 6,8 C 8,8 C 6,7 C 6,7 C 6,4 C 0,0 C 91 % 93 % 0 % 1007,9 hPa 0,0 l/m 0,0 km/h (0 Bft) NO 45 0 min 0,0 UV-I 5,4 C 6,4 C 0,0 km/h (0 Bft)
22.10.2009 19:07 6,8 C 8,8 C 6,7 C 6,7 C 6,4 C 0,0 C 91 % 93 % 0 % 1007,9 hPa 0,0 l/m 0,0 km/h (0 Bft) NO 45 0 min 0,0 UV-I 5,4 C 6,4 C 0,0 km/h (0 Bft)
22.10.2009 19:10 6,8 C 8,8 C 6,7 C 6,7 C 6,4 C 0,0 C 91 % 93 % 0 % 1007,9 hPa 0,0 l/m 0,0 km/h (0 Bft) NO 45 0 min 0,0 UV-I 5,4 C 6,4 C 0,0 km/h (0 Bft)
22.10.2009 19:15 6,8 C 8,8 C 6,7 C 6,6 C 6,3 C 0,0 C 91 % 93 % 0 % 1007,9 hPa 0,0 l/m 0,0 km/h (0 Bft) NO 45 0 min 0,0 UV-I 5,4 C 6,3 C 0,0 km/h (0 Bft)
22.10.2009 19:20 6,8 C 8,8 C 6,7 C 6,7 C 6,4 C 0,0 C 91 % 93 % 0 % 1007,9 hPa 0,0 l/m 0,0 km/h (0 Bft) O-NO 67 0 min 0,0 UV-I 5,4 C 6,4 C 0,0 km/h (0 Bft)
22.10.2009 19:25 6,8 C 8,8 C 6,6 C 6,7 C 6,4 C 0,0 C 91 % 93 % 0 % 1007,2 hPa 0,0 l/m 0,0 km/h (0 Bft) O-NO 67 0 min 0,0 UV-I 5,4 C 6,4 C 0,0 km/h (0 Bft)
22.10.2009 19:30 6,7 C 8,8 C 6,7 C 6,6 C 6,4 C 0,0 C 91 % 93 % 0 % 1007,2 hPa 0,0 l/m 0,0 km/h (0 Bft) O-NO 67 0 min 0,0 UV-I 5,3 C 6,4 C 0,0 km/h (0 Bft)
22.10.2009 19:35 6,8 C 8,8 C 6,7 C 6,7 C 6,4 C 0,0 C 91 % 93 % 0 % 1007,2 hPa 0,0 l/m 0,0 km/h (0 Bft) O-NO 67 0 min 0,0 UV-I 5,4 C 6,4 C 0,0 km/h (0 Bft)
22.10.2009 19:40 6,7 C 8,8 C 6,6 C 6,6 C 6,4 C 0,0 C 91 % 93 % 0 % 1007,2 hPa 0,0 l/m 0,0 km/h (0 Bft) NO 45 0 min 0,0 UV-I 5,3 C 6,4 C 0,0 km/h (0 Bft)
22.10.2009 19:45 6,7 C 8,8 C 6,7 C 6,6 C 6,5 C 0,0 C 92 % 93 % 0 % 1007,3 hPa 0,0 l/m 0,0 km/h (0 Bft) NO 45 0 min 0,0 UV-I 5,5 C 6,5 C 1,9 km/h (1 Bft)
22.10.2009 19:50 6,6 C 8,8 C 6,7 C 6,6 C 6,5 C 0,0 C 92 % 93 % 0 % 1007,3 hPa 0,0 l/m 0,2 km/h (0 Bft) O-NO 67 0 min 0,0 UV-I 5,4 C 6,5 C 0,0 km/h (0 Bft)
22.10.2009 19:55 6,7 C 8,9 C 6,7 C 6,6 C 6,4 C 0,0 C 92 % 93 % 0 % 1007,3 hPa 0,0 l/m 0,2 km/h (0 Bft) O-NO 67 0 min 0,0 UV-I 5,5 C 6,4 C 0,0 km/h (0 Bft)
22.10.2009 20:00 6,7 C 8,9 C 6,7 C 6,6 C 6,4 C 0,0 C 92 % 93 % 0 % 1007,3 hPa 0,0 l/m 0,0 km/h (0 Bft) O-NO 67 0 min 0,0 UV-I 5,5 C 6,4 C 0,0 km/h (0 Bft)
22.10.2009 20:07 6,7 C 8,9 C 6,7 C 6,6 C 6,4 C 0,0 C 92 % 94 % 0 % 1007,3 hPa 0,0 l/m 0,0 km/h (0 Bft) W-SW 247 0 min 0,0 UV-I 5,5 C 6,4 C 0,0 km/h (0 Bft)
22.10.2009 20:08 6,7 C 8,9 C 6,7 C 6,6 C 6,4 C 0,0 C 92 % 94 % 0 % 1007,3 hPa 0,0 l/m 0,0 km/h (0 Bft) W-SW 247 0 min 0,0 UV-I 5,5 C 6,4 C 0,0 km/h (0 Bft)
22.10.2009 20:09 6,7 C 8,9 C 6,7 C 6,6 C 6,4 C 0,0 C 92 % 94 % 0 % 1007,3 hPa 0,0 l/m 0,0 km/h (0 Bft) W-SW 247 0 min 0,0 UV-I 5,5 C 6,4 C 0,0 km/h (0 Bft)
22.10.2009 20:15 6,7 C 8,9 C 6,6 C 6,6 C 6,4 C 0,0 C 92 % 94 % 0 % 1007,3 hPa 0,0 l/m 0,0 km/h (0 Bft) S-SW 202 0 min 0,0 UV-I 5,5 C 6,4 C 0,0 km/h (0 Bft)
22.10.2009 20:20 6,7 C 8,9 C 6,5 C 6,6 C 6,4 C 0,0 C 92 % 94 % 0 % 1007,3 hPa 0,0 l/m 0,0 km/h (0 Bft) W-SW 247 0 min 0,0 UV-I 5,5 C 6,4 C 0,0 km/h (0 Bft)
22.10.2009 20:25 6,6 C 8,9 C 6,5 C 6,5 C 6,4 C 0,0 C 92 % 94 % 0 % 1007,2 hPa 0,0 l/m 0,0 km/h (0 Bft) W-SW 247 0 min 0,0 UV-I 5,4 C 6,4 C 0,0 km/h (0 Bft)
22.10.2009 20:30 6,7 C 8,8 C 6,5 C 6,6 C 6,4 C 0,0 C 92 % 94 % 0 % 1007,2 hPa 0,0 l/m 0,0 km/h (0 Bft) W-SW 247 0 min 0,0 UV-I 5,5 C 6,4 C 0,0 km/h (0 Bft)
22.10.2009 20:35 6,6 C 8,8 C 6,5 C 6,5 C 6,3 C 0,0 C 92 % 94 % 0 % 1007,2 hPa 0,0 l/m 0,0 km/h (0 Bft) SW 225 0 min 0,0 UV-I 5,4 C 6,3 C 0,0 km/h (0 Bft)
22.10.2009 20:40 6,6 C 8,8 C 6,5 C 6,5 C 6,3 C 0,0 C 92 % 94 % 0 % 1007,2 hPa 0,0 l/m 0,0 km/h (0 Bft) SW 225 0 min 0,0 UV-I 5,4 C 6,3 C 0,0 km/h (0 Bft)
22.10.2009 20:45 6,7 C 8,8 C 6,5 C 6,6 C 6,4 C 0,0 C 92 % 94 % 0 % 1007,6 hPa 0,0 l/m 0,0 km/h (0 Bft) SW 225 0 min 0,0 UV-I 5,5 C 6,4 C 0,0 km/h (0 Bft)
22.10.2009 20:50 6,6 C 8,8 C 6,5 C 6,5 C 6,4 C 0,0 C 92 % 94 % 0 % 1007,6 hPa 0,0 l/m 0,0 km/h (0 Bft) SW 225 0 min 0,0 UV-I 5,4 C 6,4 C 0,0 km/h (0 Bft)
22.10.2009 20:55 6,6 C 8,8 C 6,4 C 6,5 C 6,4 C 0,0 C 92 % 94 % 0 % 1007,6 hPa 0,0 l/m 0,0 km/h (0 Bft) SW 225 0 min 0,0 UV-I 5,4 C 6,4 C 0,0 km/h (0 Bft)
22.10.2009 21:00 6,5 C 8,8 C 6,4 C 6,4 C 6,3 C 0,0 C 92 % 94 % 0 % 1007,6 hPa 0,0 l/m 0,0 km/h (0 Bft) SW 225 0 min 0,0 UV-I 5,3 C 6,3 C 0,0 km/h (0 Bft)
22.10.2009 21:07 6,5 C 8,8 C 6,4 C 6,4 C 6,3 C 0,0 C 92 % 95 % 0 % 1007,4 hPa 0,0 l/m 0,0 km/h (0 Bft) SW 225 0 min 0,0 UV-I 5,3 C 6,3 C 0,0 km/h (0 Bft)
22.10.2009 21:10 6,5 C 8,8 C 6,4 C 6,4 C 6,3 C 0,0 C 92 % 95 % 0 % 1007,4 hPa 0,0 l/m 0,0 km/h (0 Bft) SW 225 0 min 0,0 UV-I 5,3 C 6,3 C 0,0 km/h (0 Bft)
22.10.2009 21:15 6,5 C 8,8 C 6,4 C 6,4 C 6,3 C 0,0 C 92 % 95 % 0 % 1007,4 hPa 0,0 l/m 0,0 km/h (0 Bft) SW 225 0 min 0,0 UV-I 5,3 C 6,3 C 0,0 km/h (0 Bft)
22.10.2009 21:20 6,5 C 8,8 C 6,4 C 6,5 C 6,4 C 0,0 C 93 % 95 % 0 % 1007,4 hPa 0,0 l/m 0,0 km/h (0 Bft) N-NO 22 0 min 0,0 UV-I 5,5 C 6,4 C 0,0 km/h (0 Bft)
22.10.2009 21:25 6,5 C 8,8 C 6,4 C 6,5 C 6,4 C 0,0 C 93 % 95 % 0 % 1007,2 hPa 0,0 l/m 0,0 km/h (0 Bft) NW 315 0 min 0,0 UV-I 5,5 C 6,4 C 0,0 km/h (0 Bft)
22.10.2009 21:30 6,5 C 8,8 C 6,5 C 6,5 C 6,4 C 0,0 C 93 % 95 % 0 % 1007,2 hPa 0,0 l/m 0,0 km/h (0 Bft) NW 315 0 min 0,0 UV-I 5,5 C 6,4 C 0,0 km/h (0 Bft)
22.10.2009 21:35 6,5 C 8,8 C 6,5 C 6,5 C 6,4 C 0,0 C 93 % 95 % 0 % 1007,2 hPa 0,0 l/m 0,0 km/h (0 Bft) NW 315 0 min 0,0 UV-I 5,5 C 6,4 C 0,0 km/h (0 Bft)
22.10.2009 21:40 6,5 C 8,8 C 6,4 C 6,4 C 6,3 C 0,0 C 93 % 95 % 0 % 1007,2 hPa 0,0 l/m 0,0 km/h (0 Bft) W-SW 247 0 min 0,0 UV-I 5,5 C 6,3 C 0,0 km/h (0 Bft)
22.10.2009 21:45 6,5 C 8,8 C 6,5 C 6,5 C 6,4 C 0,0 C 93 % 95 % 0 % 1007,8 hPa 0,0 l/m 0,0 km/h (0 Bft) W-SW 247 0 min 0,0 UV-I 5,5 C 6,4 C 0,0 km/h (0 Bft)
22.10.2009 21:50 6,5 C 8,8 C 6,5 C 6,5 C 6,4 C 0,0 C 93 % 95 % 0 % 1007,8 hPa 0,0 l/m 0,0 km/h (0 Bft) W-SW 247 0 min 0,0 UV-I 5,5 C 6,4 C 0,0 km/h (0 Bft)
22.10.2009 21:55 6,5 C 8,8 C 6,4 C 6,5 C 6,4 C 0,0 C 93 % 95 % 0 % 1007,8 hPa 0,0 l/m 0,0 km/h (0 Bft) W-SW 247 0 min 0,0 UV-I 5,5 C 6,4 C 0,0 km/h (0 Bft)
22.10.2009 22:00 6,5 C 8,8 C 6,4 C 6,5 C 6,4 C 0,0 C 93 % 96 % 0 % 1007,8 hPa 0,0 l/m 0,0 km/h (0 Bft) W-SW 247 0 min 0,0 UV-I 5,5 C 6,4 C 0,0 km/h (0 Bft)
22.10.2009 22:10 6,5 C 8,8 C 6,5 C 6,5 C 6,5 C 0,0 C 93 % 95 % 0 % 1007,9 hPa 0,0 l/m 0,0 km/h (0 Bft) N-NO 22 0 min 0,0 UV-I 5,5 C 6,5 C 0,0 km/h (0 Bft)
22.10.2009 22:15 6,5 C 8,8 C 6,4 C 6,5 C 6,5 C 0,0 C 93 % 96 % 0 % 1007,9 hPa 0,0 l/m 0,0 km/h (0 Bft) N-NO 22 0 min 0,0 UV-I 5,5 C 6,5 C 0,0 km/h (0 Bft)
22.10.2009 22:20 6,5 C 8,8 C 6,4 C 6,5 C 6,5 C 0,0 C 93 % 96 % 0 % 1007,9 hPa 0,0 l/m 0,0 km/h (0 Bft) N-NO 22 0 min 0,0 UV-I 5,5 C 6,5 C 0,0 km/h (0 Bft)
22.10.2009 22:25 6,5 C 8,8 C 6,4 C 6,5 C 6,5 C 0,0 C 93 % 96 % 0 % 1007,9 hPa 0,0 l/m 0,0 km/h (0 Bft) N-NO 22 0 min 0,0 UV-I 5,5 C 6,5 C 0,0 km/h (0 Bft)
22.10.2009 22:30 6,5 C 8,8 C 6,5 C 6,5 C 6,5 C 0,0 C 93 % 96 % 0 % 1007,9 hPa 0,7 l/m 0,0 km/h (0 Bft) W-SW 247 0 min 0,0 UV-I 5,5 C 6,5 C 0,0 km/h (0 Bft)
22.10.2009 22:35 6,5 C 8,8 C 6,4 C 6,5 C 6,5 C 0,0 C 93 % 96 % 0 % 1007,9 hPa 0,0 l/m 0,0 km/h (0 Bft) W-SW 247 0 min 0,0 UV-I 5,5 C 6,5 C 0,0 km/h (0 Bft)
22.10.2009 22:40 6,5 C 8,9 C 6,5 C 6,5 C 6,5 C 0,0 C 93 % 96 % 0 % 1007,9 hPa 0,0 l/m 0,0 km/h (0 Bft) W 270 0 min 0,0 UV-I 5,5 C 6,5 C 0,0 km/h (0 Bft)
22.10.2009 22:45 6,5 C 8,9 C 6,5 C 6,5 C 6,4 C 0,0 C 93 % 96 % 0 % 1007,8 hPa 0,0 l/m 0,0 km/h (0 Bft) W 270 0 min 0,0 UV-I 5,5 C 6,4 C 0,0 km/h (0 Bft)
22.10.2009 22:50 6,5 C 8,9 C 6,4 C 6,5 C 6,4 C 0,0 C 93 % 96 % 0 % 1007,8 hPa 0,0 l/m 0,0 km/h (0 Bft) W 270 0 min 0,0 UV-I 5,5 C 6,4 C 0,0 km/h (0 Bft)
22.10.2009 22:55 6,5 C 8,8 C 6,4 C 6,5 C 6,4 C 0,0 C 93 % 96 % 0 % 1007,8 hPa 0,0 l/m 0,0 km/h (0 Bft) S 180 0 min 0,0 UV-I 5,5 C 6,4 C 0,0 km/h (0 Bft)
22.10.2009 23:00 6,5 C 8,9 C 6,4 C 6,5 C 6,4 C 0,0 C 93 % 96 % 0 % 1007,8 hPa 0,0 l/m 0,0 km/h (0 Bft) S 180 0 min 0,0 UV-I 5,5 C 6,4 C 0,0 km/h (0 Bft)
22.10.2009 23:10 6,5 C 8,9 C 6,4 C 6,5 C 6,4 C 0,0 C 94 % 96 % 0 % 1007,4 hPa 0,0 l/m 0,0 km/h (0 Bft) S 180 0 min 0,0 UV-I 5,6 C 6,4 C 0,0 km/h (0 Bft)
22.10.2009 23:15 6,4 C 8,9 C 6,4 C 6,4 C 6,4 C 0,0 C 94 % 96 % 0 % 1007,4 hPa 0,0 l/m 0,0 km/h (0 Bft) O-NO 67 0 min 0,0 UV-I 5,5 C 6,4 C 0,0 km/h (0 Bft)
22.10.2009 23:20 6,4 C 8,9 C 6,4 C 6,5 C 6,5 C 0,1 C 94 % 96 % 0 % 1007,4 hPa 0,0 l/m 0,0 km/h (0 Bft) O-NO 67 0 min 0,0 UV-I 5,5 C 6,5 C 0,0 km/h (0 Bft)
22.10.2009 23:25 6,5 C 8,9 C 6,4 C 6,5 C 6,5 C 0,0 C 94 % 96 % 0 % 1007,5 hPa 0,0 l/m 0,0 km/h (0 Bft) O-NO 67 0 min 0,0 UV-I 5,6 C 6,5 C 0,0 km/h (0 Bft)
22.10.2009 23:30 6,5 C 8,9 C 6,4 C 6,5 C 6,5 C 0,0 C 94 % 96 % 0 % 1007,5 hPa 0,0 l/m 0,0 km/h (0 Bft) O-NO 67 0 min 0,0 UV-I 5,6 C 6,5 C 0,0 km/h (0 Bft)
22.10.2009 23:35 6,5 C 8,9 C 6,4 C 6,5 C 6,5 C 0,0 C 94 % 96 % 0 % 1007,5 hPa 0,7 l/m 0,0 km/h (0 Bft) SW 225 0 min 0,0 UV-I 5,6 C 6,5 C 0,0 km/h (0 Bft)
22.10.2009 23:40 6,5 C 8,9 C 6,4 C 6,5 C 6,5 C 0,0 C 94 % 97 % 0 % 1007,5 hPa 0,0 l/m 0,0 km/h (0 Bft) SW 225 0 min 0,0 UV-I 5,6 C 6,5 C 0,0 km/h (0 Bft)
22.10.2009 23:45 6,5 C 8,9 C 6,4 C 6,5 C 6,5 C 0,0 C 94 % 97 % 0 % 1007,4 hPa 0,0 l/m 0,0 km/h (0 Bft) S 180 0 min 0,0 UV-I 5,6 C 6,5 C 0,0 km/h (0 Bft)
22.10.2009 23:50 6,5 C 8,9 C 6,4 C 6,5 C 6,5 C 0,0 C 94 % 97 % 0 % 1007,4 hPa 0,0 l/m 0,0 km/h (0 Bft) S 180 0 min 0,0 UV-I 5,6 C 6,5 C 0,0 km/h (0 Bft)
22.10.2009 23:55 6,5 C 8,9 C 6,4 C 6,5 C 6,5 C 0,0 C 94 % 97 % 0 % 1007,4 hPa 0,0 l/m 0,0 km/h (0 Bft) S 180 0 min 0,0 UV-I 5,6 C 6,5 C 0,0 km/h (0 Bft)
_ Min-Zeit 04:50 11:00 04:20 05:15 04:10 00:00 12:40 12:45 00:00 07:45 - 01:10 - - - 00:00 04:50 04:10 00:35
Minimum _ 1,6 C 7,4 C 1,2 C 0,7 C -1,2 C 0,0 C 84 % 85 % 0 % 1005,0 hPa - 0,0 km/h (0 Bft) - - - 0,0 UV-I -0,2 C -1,2 C 0,0 km/h (0 Bft)
_ Max-Zeit 13:10 19:55 12:40 12:55 12:55 12:55 23:10 23:40 12:55 00:00 22:30 12:30 - - 12:35 12:20 13:10 12:55 12:35
Maximum _ 9,1 C 8,9 C 9,1 C 12,4 C 12,4 C 3,5 C 94 % 97 % 92 % 1008,9 hPa 0,7 l/m 6,8 km/h
O-NO (2 Bft)
- - 5 min 0,5 UV-I 6,7 C 12,4 C 12,6 km/h
O-NO (3 Bft)
Durchschnitt _ 5,0 C 8,2 C 4,9 C 5,2 C 4,6 C 0,4 C 89 % 91 % 12 % 1006,6 hPa #1,4 l/m 0,8 km/h (0 Bft) O-NO - #15 min. 0,2 UV-I 3,3 C 4,6 C 1,0 km/h (0 Bft)
2013 www.wetterstation-wechselburg.de